EZY75YJ EGMC-EDDB

Flight info

Callsign EZY75YJ
Flight time 1h 26m
Altitude 37000
Route CLN P44 RATLO M197 REDFA DCT TACHA DCT NIE DCT BATEL T207 OGBER OGB24R
Aircraft A20N/M-SDE2E3FGHIJ1RWXYZ/LB1

Departure

Time 2026-04-16 20:01
Airport London Southend Airport (EGMC)

Arrival

Time 2026-04-16 21:28
Airport Berlin Brandenburg Airport (EDDB)
Time Latitude Longitude Altitude Speed Heading
2026-04-16 19:36 51.57043 0.70293 42 ft 0 kts 94°
2026-04-16 19:52 51.57044 0.70277 43 ft 0 kts 94°
2026-04-16 19:52 51.57044 0.70260 43 ft 2 kts 78°
2026-04-16 19:52 51.57039 0.70238 43 ft 2 kts 56°
2026-04-16 19:53 51.57028 0.70221 44 ft 2 kts 32°
2026-04-16 19:53 51.57014 0.70212 44 ft 1 kts
2026-04-16 19:53 51.57008 0.70211 44 ft 1 kts
2026-04-16 19:53 51.57005 0.70211 44 ft 0 kts
2026-04-16 19:54 51.57006 0.70211 44 ft 0 kts
2026-04-16 19:56 51.57009 0.70211 44 ft 1 kts
2026-04-16 19:56 51.57014 0.70212 44 ft 2 kts
2026-04-16 19:56 51.57044 0.70215 44 ft 5 kts
2026-04-16 19:56 51.57088 0.70222 44 ft 7 kts
2026-04-16 19:57 51.57148 0.70228 43 ft 10 kts
2026-04-16 19:57 51.57233 0.70237 43 ft 13 kts
2026-04-16 19:57 51.57304 0.70334 41 ft 12 kts 53°
2026-04-16 19:57 51.57319 0.70366 41 ft 0 kts 53°
2026-04-16 19:58 51.57340 0.70411 42 ft 8 kts 47°
2026-04-16 19:58 51.57393 0.70454 42 ft 8 kts
2026-04-16 19:58 51.57422 0.70460 42 ft 0 kts 12°
2026-04-16 19:59 51.57451 0.70471 42 ft 15 kts 12°
2026-04-16 19:59 51.57526 0.70429 43 ft 11 kts 265°
2026-04-16 20:00 51.57497 0.70342 45 ft 0 kts 235°
2026-04-16 20:01 51.57452 0.70242 44 ft 42 kts 233°
2026-04-16 20:01 51.57113 0.69489 49 ft 113 kts 234°
2026-04-16 20:01 51.56540 0.68220 176 ft 155 kts 233°
2026-04-16 20:01 51.55928 0.66836 813 ft 153 kts 234°
2026-04-16 20:02 51.55334 0.65473 1594 ft 148 kts 235°
2026-04-16 20:02 51.54867 0.64082 2326 ft 142 kts 253°
2026-04-16 20:02 51.54863 0.62453 2737 ft 160 kts 284°
2026-04-16 20:02 51.55542 0.60900 3104 ft 185 kts 321°
2026-04-16 20:03 51.56795 0.60427 3678 ft 198 kts 11°
2026-04-16 20:03 51.57866 0.61696 4396 ft 195 kts 57°
2026-04-16 20:03 51.58666 0.63471 5026 ft 198 kts 50°
2026-04-16 20:03 51.59550 0.65196 5642 ft 211 kts 51°
2026-04-16 20:04 51.60536 0.67112 6189 ft 239 kts 50°
2026-04-16 20:04 51.61662 0.69231 6841 ft 263 kts 49°
2026-04-16 20:04 51.62900 0.71490 7795 ft 275 kts 49°
2026-04-16 20:04 51.64093 0.73765 9190 ft 267 kts 50°
2026-04-16 20:05 51.65244 0.76024 10378 ft 265 kts 50°
2026-04-16 20:05 51.66406 0.78315 11161 ft 268 kts 50°
2026-04-16 20:05 51.67599 0.80666 11796 ft 275 kts 50°
2026-04-16 20:05 51.68822 0.83070 12518 ft 280 kts 50°
2026-04-16 20:06 51.70044 0.85473 13222 ft 284 kts 50°
2026-04-16 20:06 51.71307 0.87953 13961 ft 287 kts 50°
2026-04-16 20:06 51.72562 0.90424 14639 ft 290 kts 49°
2026-04-16 20:06 51.73829 0.92919 15318 ft 293 kts 49°
2026-04-16 20:07 51.75123 0.95469 16008 ft 297 kts 49°
2026-04-16 20:07 51.76433 0.98053 16682 ft 299 kts 49°
2026-04-16 20:07 51.77745 1.00643 17299 ft 303 kts 49°
2026-04-16 20:07 51.79079 1.03279 17938 ft 306 kts 49°
2026-04-16 20:08 51.80426 1.05946 18580 ft 309 kts 49°
2026-04-16 20:08 51.81781 1.08634 19189 ft 312 kts 49°
2026-04-16 20:08 51.83157 1.11363 19790 ft 316 kts 48°
2026-04-16 20:08 51.84483 1.14212 20375 ft 321 kts 55°
2026-04-16 20:09 51.85597 1.17336 20917 ft 326 kts 63°
2026-04-16 20:09 51.86538 1.20679 21458 ft 331 kts 65°
2026-04-16 20:09 51.87443 1.24108 21990 ft 335 kts 65°
2026-04-16 20:09 51.88352 1.27577 22536 ft 338 kts 65°
2026-04-16 20:10 51.89281 1.31091 23064 ft 342 kts 65°
2026-04-16 20:10 51.90220 1.34622 23564 ft 346 kts 65°
2026-04-16 20:10 51.91177 1.38208 24077 ft 350 kts 64°
2026-04-16 20:10 51.92147 1.41831 24589 ft 353 kts 64°
2026-04-16 20:11 51.93129 1.45500 25088 ft 357 kts 64°
2026-04-16 20:11 51.94114 1.49196 25586 ft 361 kts 64°
2026-04-16 20:11 51.95104 1.52911 26069 ft 364 kts 64°
2026-04-16 20:11 51.96120 1.56733 26565 ft 368 kts 64°
2026-04-16 20:12 51.97127 1.60530 27025 ft 371 kts 64°
2026-04-16 20:12 51.98144 1.64365 27489 ft 374 kts 65°
2026-04-16 20:12 51.99082 1.68296 27918 ft 378 kts 70°
2026-04-16 20:12 51.99853 1.72427 28344 ft 383 kts 74°
2026-04-16 20:13 52.00508 1.76579 28772 ft 386 kts 75°
2026-04-16 20:13 52.01137 1.80700 29172 ft 389 kts 75°
2026-04-16 20:13 52.01779 1.84914 29570 ft 392 kts 75°
2026-04-16 20:13 52.02440 1.89242 29960 ft 395 kts 75°
2026-04-16 20:14 52.03098 1.93525 30334 ft 398 kts 74°
2026-04-16 20:14 52.03778 1.97951 30701 ft 401 kts 74°
2026-04-16 20:14 52.04446 2.02303 31024 ft 404 kts 74°
2026-04-16 20:14 52.05125 2.06736 31367 ft 407 kts 74°
2026-04-16 20:15 52.05808 2.11197 31696 ft 410 kts 74°
2026-04-16 20:15 52.06493 2.15697 32006 ft 413 kts 74°
2026-04-16 20:15 52.07182 2.20226 32316 ft 415 kts 74°
2026-04-16 20:15 52.07872 2.24778 32616 ft 418 kts 74°
2026-04-16 20:16 52.08558 2.29321 32904 ft 421 kts 74°
2026-04-16 20:16 52.09255 2.33946 33183 ft 424 kts 74°
2026-04-16 20:16 52.09956 2.38613 33452 ft 426 kts 74°
2026-04-16 20:16 52.10663 2.43343 33706 ft 429 kts 74°
2026-04-16 20:17 52.11374 2.48051 33968 ft 432 kts 72°
2026-04-16 20:17 52.12202 2.52709 34213 ft 434 kts 70°
2026-04-16 20:17 52.13088 2.57362 34471 ft 436 kts 69°
2026-04-16 20:17 52.13995 2.62069 34690 ft 438 kts 69°
2026-04-16 20:18 52.14902 2.66792 34903 ft 440 kts 70°
2026-04-16 20:18 52.15808 2.71528 35101 ft 442 kts 70°
2026-04-16 20:18 52.16719 2.76335 35336 ft 443 kts 70°
2026-04-16 20:18 52.17635 2.81177 35550 ft 445 kts 71°
2026-04-16 20:19 52.18535 2.85966 35744 ft 446 kts 70°
2026-04-16 20:19 52.19436 2.90773 35956 ft 447 kts 71°
2026-04-16 20:19 52.20335 2.95582 36156 ft 448 kts 70°
2026-04-16 20:19 52.21237 3.00417 36348 ft 449 kts 70°
2026-04-16 20:20 52.22147 3.05309 36559 ft 450 kts 70°
2026-04-16 20:20 52.23048 3.10161 36752 ft 452 kts 70°
2026-04-16 20:20 52.23953 3.15053 36950 ft 454 kts 70°
2026-04-16 20:20 52.24858 3.20004 37144 ft 456 kts 71°
2026-04-16 20:21 52.26017 3.28398 37204 ft 460 kts 78°
2026-04-16 20:21 52.27065 3.40466 37204 ft 461 kts 80°
2026-04-16 20:22 52.27911 3.50722 37208 ft 460 kts 80°
2026-04-16 20:22 52.28768 3.61037 37208 ft 460 kts 79°
2026-04-16 20:23 52.29629 3.71411 37203 ft 460 kts 80°
2026-04-16 20:23 52.30477 3.81739 37205 ft 460 kts 80°
2026-04-16 20:24 52.31317 3.92066 37202 ft 460 kts 80°
2026-04-16 20:24 52.32147 4.02369 37204 ft 460 kts 80°
2026-04-16 20:25 52.32969 4.12713 37207 ft 460 kts 80°
2026-04-16 20:25 52.33794 4.23210 37212 ft 459 kts 80°
2026-04-16 20:26 52.34618 4.33813 37216 ft 459 kts 80°
2026-04-16 20:26 52.35418 4.44225 37222 ft 459 kts 80°
2026-04-16 20:27 52.36223 4.54841 37223 ft 458 kts 80°
2026-04-16 20:27 52.37005 4.65264 37227 ft 458 kts 81°
2026-04-16 20:28 52.37779 4.75682 37231 ft 459 kts 81°
2026-04-16 20:28 52.38537 4.86076 37234 ft 459 kts 80°
2026-04-16 20:29 52.39281 4.96385 37229 ft 458 kts 80°
2026-04-16 20:29 52.40025 5.06775 37225 ft 458 kts 80°
2026-04-16 20:30 52.40755 5.17141 37229 ft 459 kts 80°
2026-04-16 20:30 52.41465 5.27349 37234 ft 459 kts 80°
2026-04-16 20:31 52.42188 5.37882 37227 ft 458 kts 80°
2026-04-16 20:31 52.42890 5.48257 37227 ft 458 kts 80°
2026-04-16 20:32 52.43583 5.58612 37235 ft 458 kts 80°
2026-04-16 20:32 52.44270 5.68998 37235 ft 458 kts 81°
2026-04-16 20:33 52.44944 5.79359 37232 ft 458 kts 81°
2026-04-16 20:33 52.45610 5.89751 37229 ft 458 kts 81°
2026-04-16 20:34 52.46265 6.00101 37229 ft 458 kts 81°
2026-04-16 20:34 52.46908 6.10401 37231 ft 457 kts 81°
2026-04-16 20:35 52.47542 6.20704 37226 ft 456 kts 81°
2026-04-16 20:35 52.48138 6.30520 37223 ft 457 kts 81°
2026-04-16 20:36 52.48756 6.40857 37230 ft 457 kts 81°
2026-04-16 20:36 52.49237 6.48999 37226 ft 457 kts 80°
2026-04-16 20:37 52.49770 6.58171 37226 ft 456 kts 80°
2026-04-16 20:38 52.50358 6.68368 37221 ft 457 kts 81°
2026-04-16 20:38 52.50961 6.79050 37226 ft 456 kts 81°
2026-04-16 20:39 52.51512 6.88951 37224 ft 456 kts 81°
2026-04-16 20:39 52.52076 6.99245 37226 ft 456 kts 81°
2026-04-16 20:40 52.52638 7.09683 37219 ft 456 kts 81°
2026-04-16 20:40 52.53185 7.20001 37224 ft 457 kts 81°
2026-04-16 20:41 52.53640 7.28716 37224 ft 457 kts 81°
2026-04-16 20:41 52.54249 7.40582 37245 ft 456 kts 81°
2026-04-16 20:42 52.54685 7.49248 37236 ft 455 kts 81°
2026-04-16 20:42 52.55273 7.61102 37231 ft 455 kts 81°
2026-04-16 20:43 52.55763 7.71140 37223 ft 456 kts 82°
2026-04-16 20:43 52.56250 7.81383 37242 ft 456 kts 81°
2026-04-16 20:44 52.56644 7.89776 37231 ft 456 kts 81°
2026-04-16 20:44 52.57206 8.01936 37243 ft 456 kts 82°
2026-04-16 20:45 52.57673 8.12268 37232 ft 455 kts 81°
2026-04-16 20:45 52.58133 8.22648 37235 ft 456 kts 81°
2026-04-16 20:46 52.58554 8.32403 37231 ft 455 kts 81°
2026-04-16 20:46 52.59000 8.42837 37235 ft 455 kts 81°
2026-04-16 20:47 52.59430 8.53136 37222 ft 455 kts 81°
2026-04-16 20:47 52.59853 8.63542 37228 ft 453 kts 81°
2026-04-16 20:48 52.60266 8.73854 37243 ft 453 kts 82°
2026-04-16 20:48 52.60672 8.84263 37247 ft 454 kts 82°
2026-04-16 20:49 52.61047 8.94101 37240 ft 454 kts 82°
2026-04-16 20:49 52.61433 9.04468 37236 ft 453 kts 82°
2026-04-16 20:50 52.61809 9.14769 37237 ft 452 kts 82°
2026-04-16 20:50 52.62176 9.25131 37230 ft 452 kts 82°
2026-04-16 20:51 52.62503 9.35439 37229 ft 454 kts 84°
2026-04-16 20:51 52.62294 9.45822 37240 ft 455 kts 90°
2026-04-16 20:52 52.61860 9.56254 37227 ft 455 kts 90°
2026-04-16 20:52 52.61436 9.66437 37227 ft 455 kts 91°
2026-04-16 20:53 52.61002 9.76875 37251 ft 455 kts 90°
2026-04-16 20:53 52.60564 9.87246 37229 ft 455 kts 90°
2026-04-16 20:54 52.60123 9.97460 36819 ft 447 kts 90°
2026-04-16 20:54 52.59900 10.02515 36359 ft 445 kts 90°
2026-04-16 20:54 52.59750 10.05901 36108 ft 443 kts 90°
2026-04-16 20:55 52.59450 10.12649 35703 ft 439 kts 90°
2026-04-16 20:55 52.59225 10.17636 35423 ft 436 kts 89°
2026-04-16 20:55 52.59001 10.22565 35128 ft 433 kts 89°
2026-04-16 20:55 52.58778 10.27435 34796 ft 431 kts 89°
2026-04-16 20:56 52.58551 10.32352 34426 ft 428 kts 89°
2026-04-16 20:56 52.58326 10.37193 34049 ft 425 kts 89°
2026-04-16 20:56 52.58102 10.41985 33700 ft 422 kts 89°
2026-04-16 20:56 52.57951 10.45194 33448 ft 420 kts 89°
2026-04-16 20:57 52.57647 10.51584 32950 ft 416 kts 88°
2026-04-16 20:57 52.57498 10.54671 32728 ft 414 kts 89°
2026-04-16 20:57 52.57195 10.60911 32262 ft 410 kts 89°
2026-04-16 20:57 52.56968 10.65547 31911 ft 406 kts 89°
2026-04-16 20:58 52.56817 10.68639 31667 ft 404 kts 89°
2026-04-16 20:58 52.56513 10.74744 31174 ft 401 kts 89°
2026-04-16 20:58 52.56286 10.79265 30800 ft 398 kts 89°
2026-04-16 20:58 52.56058 10.83757 30406 ft 395 kts 89°
2026-04-16 20:59 52.55833 10.88205 30018 ft 392 kts 89°
2026-04-16 20:59 52.55605 10.92684 29624 ft 388 kts 89°
2026-04-16 20:59 52.55380 10.97059 29230 ft 385 kts 89°
2026-04-16 20:59 52.55150 11.01426 28867 ft 382 kts 89°
2026-04-16 21:00 52.55001 11.04260 28617 ft 379 kts 90°
2026-04-16 21:00 52.54813 11.08579 28222 ft 375 kts 87°
2026-04-16 21:00 52.54776 11.14202 27703 ft 368 kts 82°
2026-04-16 21:00 52.54834 11.16953 27453 ft 366 kts 81°
2026-04-16 21:01 52.54974 11.22518 26953 ft 362 kts 81°
2026-04-16 21:01 52.55077 11.26567 26584 ft 359 kts 82°
2026-04-16 21:01 52.55175 11.30638 26203 ft 356 kts 82°
2026-04-16 21:01 52.55269 11.34718 25829 ft 353 kts 82°
2026-04-16 21:02 52.55359 11.38703 25459 ft 351 kts 82°
2026-04-16 21:02 52.55447 11.42685 25075 ft 349 kts 82°
2026-04-16 21:02 52.55532 11.46619 24701 ft 347 kts 82°
2026-04-16 21:03 52.55695 11.54469 23966 ft 342 kts 82°
2026-04-16 21:03 52.55774 11.58363 23612 ft 340 kts 82°
2026-04-16 21:03 52.55850 11.62200 23289 ft 337 kts 82°
2026-04-16 21:03 52.55900 11.64766 23070 ft 335 kts 82°
2026-04-16 21:04 52.55998 11.69780 22601 ft 332 kts 83°
2026-04-16 21:04 52.56071 11.73584 22262 ft 330 kts 83°
2026-04-16 21:04 52.56141 11.77335 21932 ft 327 kts 83°
2026-04-16 21:04 52.56186 11.79821 21700 ft 326 kts 83°
2026-04-16 21:05 52.56277 11.84759 21251 ft 322 kts 83°
2026-04-16 21:05 52.56342 11.88429 20919 ft 320 kts 83°
2026-04-16 21:05 52.56406 11.92075 20579 ft 318 kts 83°
2026-04-16 21:05 52.56465 11.95492 20268 ft 316 kts 83°
2026-04-16 21:06 52.56524 11.99065 19946 ft 313 kts 83°
2026-04-16 21:06 52.56577 12.02296 19643 ft 311 kts 84°
2026-04-16 21:06 52.56620 12.04917 19397 ft 310 kts 83°
2026-04-16 21:06 52.56691 12.09622 18958 ft 307 kts 85°
2026-04-16 21:07 52.56699 12.13163 18623 ft 306 kts 85°
2026-04-16 21:07 52.56691 12.16627 18296 ft 304 kts 86°
2026-04-16 21:07 52.56688 12.20081 17988 ft 301 kts 84°
2026-04-16 21:07 52.56782 12.23530 17675 ft 297 kts 81°
2026-04-16 21:08 52.57006 12.26881 17369 ft 293 kts 77°
2026-04-16 21:08 52.57320 12.30166 17041 ft 291 kts 76°
2026-04-16 21:08 52.57534 12.32305 16829 ft 290 kts 76°
2026-04-16 21:08 52.57969 12.36661 16393 ft 288 kts 76°
2026-04-16 21:09 52.58286 12.39877 16069 ft 286 kts 76°
2026-04-16 21:09 52.58602 12.43105 15751 ft 285 kts 77°
2026-04-16 21:09 52.58916 12.46345 15421 ft 283 kts 77°
2026-04-16 21:09 52.59219 12.49486 15099 ft 282 kts 77°
2026-04-16 21:10 52.59525 12.52687 14764 ft 281 kts 77°
2026-04-16 21:10 52.59827 12.55850 14453 ft 279 kts 77°
2026-04-16 21:10 52.60124 12.58971 14158 ft 277 kts 77°
2026-04-16 21:10 52.60421 12.62092 13860 ft 275 kts 78°
2026-04-16 21:11 52.60709 12.65146 13547 ft 273 kts 78°
2026-04-16 21:11 52.61002 12.68247 13222 ft 272 kts 78°
2026-04-16 21:11 52.61227 12.71354 12898 ft 271 kts 84°
2026-04-16 21:11 52.61280 12.74432 12572 ft 271 kts 89°
2026-04-16 21:12 52.61170 12.77536 12248 ft 271 kts 93°
2026-04-16 21:12 52.61010 12.80615 11952 ft 269 kts 93°
2026-04-16 21:12 52.60845 12.83671 11636 ft 267 kts 93°
2026-04-16 21:12 52.60685 12.86679 11321 ft 266 kts 93°
2026-04-16 21:13 52.60523 12.89749 11011 ft 264 kts 93°
2026-04-16 21:13 52.60367 12.92740 10703 ft 263 kts 93°
2026-04-16 21:13 52.60211 12.95743 10399 ft 262 kts 93°
2026-04-16 21:13 52.60057 12.98706 10094 ft 260 kts 94°
2026-04-16 21:14 52.59903 13.01646 9799 ft 258 kts 94°
2026-04-16 21:14 52.59746 13.04612 9496 ft 257 kts 93°
2026-04-16 21:14 52.59593 13.07507 9198 ft 255 kts 94°
2026-04-16 21:14 52.59492 13.09418 9010 ft 254 kts 94°
2026-04-16 21:15 52.59287 13.13274 8615 ft 251 kts 94°
2026-04-16 21:15 52.59133 13.16138 8321 ft 250 kts 93°
2026-04-16 21:15 52.58982 13.18955 8016 ft 249 kts 93°
2026-04-16 21:15 52.58879 13.20857 7810 ft 248 kts 93°
2026-04-16 21:16 52.58678 13.24581 7408 ft 247 kts 93°
2026-04-16 21:16 52.58524 13.27421 7106 ft 246 kts 93°
2026-04-16 21:16 52.58374 13.30176 6816 ft 244 kts 94°
2026-04-16 21:16 52.58221 13.32976 6525 ft 243 kts 94°
2026-04-16 21:17 52.58069 13.35723 6238 ft 241 kts 94°
2026-04-16 21:17 52.57919 13.38441 5957 ft 240 kts 94°
2026-04-16 21:17 52.57767 13.41169 5664 ft 238 kts 94°
2026-04-16 21:17 52.57616 13.43878 5381 ft 237 kts 94°
2026-04-16 21:18 52.57466 13.46533 5120 ft 234 kts 94°
2026-04-16 21:18 52.57315 13.49196 4844 ft 232 kts 94°
2026-04-16 21:18 52.57164 13.51837 4578 ft 230 kts 93°
2026-04-16 21:18 52.57017 13.54419 4277 ft 229 kts 93°
2026-04-16 21:19 52.56917 13.56192 4096 ft 228 kts 93°
2026-04-16 21:19 52.56725 13.59580 3989 ft 226 kts 93°
2026-04-16 21:19 52.56577 13.62172 3985 ft 227 kts 93°
2026-04-16 21:19 52.56429 13.64736 3983 ft 227 kts 93°
2026-04-16 21:20 52.56278 13.67353 3984 ft 228 kts 94°
2026-04-16 21:20 52.56128 13.69950 3981 ft 227 kts 94°
2026-04-16 21:20 52.55979 13.72500 3983 ft 227 kts 94°
2026-04-16 21:20 52.55827 13.75098 3980 ft 225 kts 94°
2026-04-16 21:21 52.55726 13.76800 3978 ft 226 kts 94°
2026-04-16 21:21 52.55524 13.80229 3978 ft 226 kts 94°
2026-04-16 21:21 52.55372 13.82792 3977 ft 225 kts 94°
2026-04-16 21:21 52.55207 13.85358 3979 ft 227 kts 99°
2026-04-16 21:22 52.54595 13.87752 3972 ft 228 kts 128°
2026-04-16 21:22 52.53393 13.89364 3975 ft 225 kts 155°
2026-04-16 21:22 52.51937 13.90304 3980 ft 226 kts 161°
2026-04-16 21:22 52.50428 13.91180 3980 ft 227 kts 161°
2026-04-16 21:23 52.48917 13.91924 3970 ft 226 kts 177°
2026-04-16 21:23 52.47404 13.91470 3973 ft 225 kts 210°
2026-04-16 21:23 52.46288 13.89721 3978 ft 222 kts 243°
2026-04-16 21:23 52.45707 13.87365 3985 ft 220 kts 254°
2026-04-16 21:24 52.45284 13.84959 3984 ft 219 kts 255°
2026-04-16 21:24 52.44837 13.82582 3937 ft 219 kts 253°
2026-04-16 21:24 52.44335 13.80246 3705 ft 217 kts 251°
2026-04-16 21:24 52.43794 13.77917 3407 ft 217 kts 250°
2026-04-16 21:25 52.43243 13.75622 3114 ft 216 kts 250°
2026-04-16 21:25 52.42692 13.73344 2824 ft 215 kts 251°
2026-04-16 21:25 52.42142 13.71065 2539 ft 214 kts 251°
2026-04-16 21:25 52.41609 13.68849 2342 ft 205 kts 251°
2026-04-16 21:26 52.41093 13.66694 2019 ft 197 kts 252°
2026-04-16 21:26 52.40612 13.64683 1726 ft 185 kts 252°
2026-04-16 21:26 52.40159 13.62784 1468 ft 175 kts 251°
2026-04-16 21:26 52.39867 13.61555 1312 ft 168 kts 251°
2026-04-16 21:27 52.39330 13.59302 1053 ft 150 kts 252°
2026-04-16 21:27 52.38969 13.57784 844 ft 137 kts 252°
2026-04-16 21:27 52.38620 13.56316 664 ft 135 kts 251°
2026-04-16 21:27 52.38289 13.54936 455 ft 131 kts 251°
2026-04-16 21:28 52.37961 13.53550 286 ft 129 kts 250°
2026-04-16 21:28 52.37653 13.52221 167 ft 125 kts 251°
2026-04-16 21:28 52.37424 13.51259 166 ft 43 kts 245°
2026-04-16 21:28 52.37321 13.50828 166 ft 39 kts 249°
2026-04-16 21:29 52.37217 13.50430 166 ft 36 kts 238°
2026-04-16 21:29 52.37064 13.50173 166 ft 16 kts 219°
2026-04-16 21:29 52.37029 13.50127 166 ft 9 kts 219°
2026-04-16 21:29 52.36950 13.50080 166 ft 10 kts 167°
2026-04-16 21:30 52.36867 13.50132 166 ft 14 kts 159°
2026-04-16 21:30 52.36762 13.50200 166 ft 16 kts 159°
2026-04-16 21:30 52.36650 13.50270 166 ft 16 kts 160°
2026-04-16 21:30 52.36538 13.50340 166 ft 16 kts 159°
2026-04-16 21:31 52.36468 13.50386 166 ft 5 kts 155°
2026-04-16 21:31 52.36470 13.50439 166 ft 5 kts 69°
2026-04-16 21:31 52.36485 13.50503 166 ft 3 kts 70°
2026-04-16 21:31 52.36489 13.50519 166 ft 0 kts 69°
2026-04-16 21:32 52.36492 13.50531 166 ft 3 kts 69°
2026-04-16 21:32 52.36495 13.50543 166 ft 0 kts 69°